Weather History for Cody, WY

Change the Weather History Date:

Wednesday, November 28, 2012

  Actual Average Record
Temperature  
Mean Temperature 42 °F -  
Max Temperature 51 °F 37 °F 63 °F (1932)
Min Temperature 33 °F 15 °F -13 °F (1919)
Degree Days  
Heating Degree Days 23    
Moisture  
Dew Point 22 °F    
Average Humidity 46    
Maximum Humidity 75    
Minimum Humidity 28    
Precipitation  
Precipitation 0.00 in - - ()
Sea Level Pressure  
Sea Level Pressure 30.01 in    
Wind  
Wind Speed 10 mph (SSE)    
Max Wind Speed 20 mph    
Max Gust Speed 24 mph    
Visibility 10 miles    
Events      
Averages and records for this station are not official NWS values.
T = Trace of Precipitation, MM = Missing Value Source: NWS Daily Summary

Daily Weather History Graph

Daily Weather History Graph

Search for Another Location

Airport:

Trip Planner

Search our weather history database for the weather conditions in past years. The results will help you decide how hot, cold, wet, or windy it might be!

Date:

Astronomy

Nov. 28, 2012 Rise Set
Actual Time 7:29 AM MST 4:38 PM MST
Civil Twilight 6:57 AM MST 5:11 PM MST
Nautical Twilight 6:20 AM MST 5:47 PM MST
Astronomical Twilight 5:45 AM MST 6:22 PM MST
Moon 4:55 PM MST (11/28) 7:30 AM MST (11/28)
Length of Visible Light 10h 14m
Length of Day
9h 08m
Full, 100% of the Moon is Illuminated
Nov 28
Full
Dec 6
Last Quarter
Dec 13
New
Dec 19
First Quarter
Dec 28
Full

Hourly Weather History & Observations

Time (MST) Temp. Windchill Dew Point Humidity Pressure Visibility Wind Dir Wind Speed Gust Speed Precip Events Conditions
12:15 AM 42.8 °F 35.8 °F 19.4 °F 39% 30.10 in 10.0 mi SW 13.8 mph 19.6 mph N/A   Clear
12:35 AM 39.2 °F 30.8 °F 19.4 °F 45% 30.09 in 10.0 mi SSW 15.0 mph - N/A   Clear
12:55 AM 39.2 °F 31.2 °F 19.4 °F 45% 30.09 in 10.0 mi SSW 13.8 mph - N/A   Clear
1:15 AM 39.2 °F 33.0 °F 19.4 °F 45% 30.09 in 10.0 mi SSW 9.2 mph - N/A   Clear
1:35 AM 39.2 °F - 19.4 °F 45% 30.09 in 10.0 mi Calm Calm - N/A   Clear
1:55 AM 42.8 °F 38.6 °F 19.4 °F 39% 30.08 in 10.0 mi West 6.9 mph - N/A   Clear
2:15 AM 42.8 °F 37.0 °F 19.4 °F 39% 30.08 in 10.0 mi South 10.4 mph 24.2 mph N/A   Clear
2:35 AM 44.6 °F 38.1 °F 17.6 °F 34% 30.07 in 10.0 mi SW 13.8 mph 21.9 mph N/A   Clear
2:55 AM 44.6 °F 43.1 °F 19.4 °F 37% 30.07 in 10.0 mi WSW 3.5 mph - N/A   Clear
3:15 AM 44.6 °F 39.2 °F 17.6 °F 34% 30.07 in 10.0 mi South 10.4 mph - N/A   Clear
3:35 AM 42.8 °F 34.3 °F 19.4 °F 39% 30.06 in 10.0 mi South 19.6 mph - N/A   Clear
3:55 AM 42.8 °F 34.3 °F 19.4 °F 39% 30.05 in 10.0 mi SSE 19.6 mph 23.0 mph N/A   Clear
4:15 AM 42.8 °F 34.8 °F 19.4 °F 39% 30.05 in 10.0 mi SSE 17.3 mph 21.9 mph N/A   Clear
4:35 AM 42.8 °F 35.4 °F 19.4 °F 39% 30.05 in 10.0 mi SSE 15.0 mph 19.6 mph N/A   Clear
4:55 AM 42.8 °F 37.5 °F 19.4 °F 39% 30.06 in 10.0 mi South 9.2 mph 20.7 mph N/A   Clear
5:15 AM 39.2 °F 31.2 °F 19.4 °F 45% 30.06 in 10.0 mi South 13.8 mph - N/A   Clear
5:35 AM 41.0 °F 35.8 °F 17.6 °F 39% 30.07 in 10.0 mi WNW 8.1 mph - N/A   Clear
5:56 AM 42.8 °F 36.6 °F 17.6 °F 36% 30.06 in 10.0 mi SSE 11.5 mph - N/A   Clear
6:15 AM 42.8 °F 35.8 °F 17.6 °F 36% 30.06 in 10.0 mi SSE 13.8 mph 20.7 mph N/A   Clear
6:35 AM 42.8 °F 35.4 °F 15.8 °F 34% 30.06 in 10.0 mi SE 15.0 mph 18.4 mph N/A   Clear
6:55 AM 44.6 °F 40.2 °F 15.8 °F 31% 30.06 in 10.0 mi SE 8.1 mph - N/A   Clear
7:15 AM 44.6 °F 39.2 °F 15.8 °F 31% 30.06 in 10.0 mi ESE 10.4 mph - N/A   Clear
7:35 AM 41.0 °F 33.1 °F 17.6 °F 39% 30.06 in 10.0 mi SSE 15.0 mph - N/A   Clear
7:55 AM 44.6 °F - 17.6 °F 34% 30.06 in 10.0 mi Calm Calm - N/A   Clear
8:15 AM 44.6 °F 37.4 °F 17.6 °F 34% 30.06 in 10.0 mi South 16.1 mph - N/A   Clear
8:35 AM 42.8 °F 35.8 °F 17.6 °F 36% 30.06 in 10.0 mi SSE 13.8 mph - N/A   Clear
8:55 AM 41.0 °F 35.2 °F 19.4 °F 42% 30.07 in 10.0 mi SE 9.2 mph - N/A   Clear
9:15 AM 39.2 °F 31.2 °F 19.4 °F 45% 30.07 in 10.0 mi SE 13.8 mph - N/A   Clear
9:35 AM 42.8 °F 35.1 °F 19.4 °F 39% 30.06 in 10.0 mi SSE 16.1 mph - N/A   Clear
9:55 AM 42.8 °F 38.0 °F 19.4 °F 39% 30.06 in 10.0 mi WNW 8.1 mph - N/A   Clear
10:15 AM 44.6 °F 40.7 °F 19.4 °F 37% 30.06 in 10.0 mi WNW 6.9 mph - N/A   Clear
10:35 AM 46.4 °F 43.5 °F 21.2 °F 37% 30.05 in 10.0 mi West 5.8 mph - N/A   Clear
10:55 AM 48.2 °F - 19.4 °F 32% 30.06 in 10.0 mi NNW 3.5 mph - N/A   Clear
11:35 AM 50.0 °F - 21.2 °F 32% 30.04 in 10.0 mi North 6.9 mph - N/A   Clear
11:55 AM 46.4 °F 42.4 °F 24.8 °F 43% 30.03 in 10.0 mi NNE 8.1 mph - N/A   Clear
12:16 PM 48.2 °F - 21.2 °F 34% 30.03 in 10.0 mi NW 4.6 mph - N/A   Clear
12:35 PM 48.2 °F - 23.0 °F 37% 30.03 in 10.0 mi North 3.5 mph - N/A   Clear
12:55 PM 51.8 °F - 19.4 °F 28% 30.01 in 10.0 mi West 5.8 mph - N/A   Clear
1:15 PM 50.0 °F - 26.6 °F 40% 30.01 in 10.0 mi NE 6.9 mph - N/A   Clear
1:35 PM 48.2 °F - 28.4 °F 46% 30.00 in 10.0 mi NE 6.9 mph - N/A   Clear
1:55 PM 46.4 °F 42.9 °F 26.6 °F 46% 30.00 in 10.0 mi NNE 6.9 mph - N/A   Clear
2:15 PM 44.6 °F 40.7 °F 30.2 °F 57% 29.99 in 10.0 mi North 6.9 mph - N/A   Clear
2:35 PM 42.8 °F 40.1 °F 28.4 °F 57% 29.98 in 10.0 mi East 4.6 mph - N/A   Clear
2:56 PM 46.4 °F 43.5 °F 28.4 °F 50% 29.97 in 10.0 mi NNE 5.8 mph - N/A   Clear
3:15 PM 42.8 °F 38.6 °F 30.2 °F 61% 29.97 in 10.0 mi North 6.9 mph - N/A   Clear
3:35 PM 42.8 °F 39.3 °F 30.2 °F 61% 29.96 in 10.0 mi NE 5.8 mph - N/A   Clear
3:55 PM 37.4 °F 32.8 °F 28.4 °F 70% 29.96 in 10.0 mi NE 5.8 mph - N/A   Clear
4:15 PM 37.4 °F 32.1 °F 26.6 °F 65% 29.97 in 10.0 mi ENE 6.9 mph - N/A   Clear
5:15 PM 35.6 °F - 28.4 °F 75% 29.96 in 10.0 mi Calm Calm - N/A   Clear
5:55 PM 35.6 °F - 26.6 °F 70% 29.95 in 10.0 mi Calm Calm - N/A   Clear
6:15 PM 35.6 °F 32.8 °F 28.4 °F 75% 29.95 in 10.0 mi SE 3.5 mph - N/A   Clear
6:35 PM 33.8 °F 29.6 °F 26.6 °F 75% 29.95 in 10.0 mi South 4.6 mph - N/A   Clear
6:55 PM 35.6 °F 32.8 °F 24.8 °F 65% 29.95 in 10.0 mi SSE 3.5 mph - N/A   Clear
7:15 PM 37.4 °F - 24.8 °F 60% 29.95 in 10.0 mi Calm Calm - N/A   Clear
7:35 PM 39.2 °F 37.0 °F 24.8 °F 56% 29.95 in 10.0 mi SSE 3.5 mph - N/A   Clear
7:55 PM 39.2 °F 35.9 °F 23.0 °F 52% 29.94 in 10.0 mi South 4.6 mph - N/A   Clear
8:15 PM 39.2 °F 34.2 °F 24.8 °F 56% 29.93 in 10.0 mi SSE 6.9 mph - N/A   Clear
8:35 PM 39.2 °F 33.0 °F 24.8 °F 56% 29.92 in 10.0 mi South 9.2 mph - N/A   Clear
8:55 PM 39.2 °F 32.0 °F 24.8 °F 56% 29.92 in 10.0 mi South 11.5 mph - N/A   Clear
9:15 PM 39.2 °F 32.5 °F 24.8 °F 56% 29.91 in 10.0 mi South 10.4 mph - N/A   Clear
9:35 PM 41.0 °F 35.8 °F 24.8 °F 53% 29.90 in 10.0 mi SSW 8.1 mph - N/A   Clear
9:55 PM 42.8 °F 38.0 °F 23.0 °F 46% 29.90 in 10.0 mi SSW 8.1 mph - N/A   Clear
10:15 PM 39.2 °F 32.0 °F 24.8 °F 56% 29.90 in 10.0 mi SE 11.5 mph - N/A   Clear
10:35 PM 41.0 °F 36.4 °F 24.8 °F 53% 29.89 in 10.0 mi South 6.9 mph - N/A   Clear
10:55 PM 39.2 °F 34.2 °F 21.2 °F 49% 29.89 in 10.0 mi SSE 6.9 mph - N/A   Clear
11:15 PM 39.2 °F 34.2 °F 21.2 °F 49% 29.88 in 10.0 mi SSE 6.9 mph - N/A   Clear
11:35 PM 39.2 °F 33.0 °F 21.2 °F 49% 29.88 in 10.0 mi SSE 9.2 mph - N/A   Clear
11:55 PM 39.2 °F 34.2 °F 23.0 °F 52% 29.89 in 10.0 mi SSE 6.9 mph - N/A   Clear